Regional Weather Roundup
Issued by NWS

Home | Current Version | Previous Version | Graphics & Text | Print | Product List | Glossary On
Versions: 1 2 3 4 5 6 7 8 9 10 11 12 13 14 15 16 17 18 19 20 21 22 23 24 25 26 27
000
ASUS45 KPSR 301010
RWRAZ

ARIZONA HOURLY REGIONAL WEATHER ROUNDUP
NATIONAL WEATHER SERVICE PHOENIX AZ
300 AM MST MON MAY 30 2016

NOTE: FAIR INDICATES FEW OR NO CLOUDS BELOW 12,000 FEET WITH NO
SIGNIFICANT WEATHER AND/OR OBSTRUCTIONS TO VISIBILITY.

AZZ001>003-036-301100-
NORTHWEST ARIZONA

CITY           SKY/WX    TMP DP  RH WIND       PRES   REMARKS
KINGMAN        CLEAR     59  22  24 CALM      29.97F
$$

AZZ004>008-015-016-018-301100-
NORTH CENTRAL ARIZONA

CITY           SKY/WX    TMP DP  RH WIND       PRES   REMARKS
GRAND CANYON   CLEAR     33  15  47 E3        30.17S
WILLIAMS       CLEAR     37  16  41 S8        30.23F WCI  31
PRESCOTT       CLEAR     51  20  29 S5        30.07F
FLAGSTAFF      CLEAR     42  16  34 NW5       30.17S
PAYSON         PTCLDY    55  18  22 NE3       30.11S
PAGE           PTCLDY    67  30  25 CALM      29.99R
$$

AZZ009>014-017-301100-
NORTHEAST ARIZONA

CITY           SKY/WX    TMP DP  RH WIND       PRES   REMARKS
WINSLOW        CLEAR     49  18  29 S5        30.09R
SAINT JOHNS    MOCLDY    52  20  28 S6        30.12S
WINDOW ROCK    CLEAR     42  18  37 CALM      30.16S
SHOW LOW       PTCLDY    45  16  31 CALM      30.16S
$$

AZZ023-301100-
GREATER PHOENIX AREA

CITY           SKY/WX    TMP DP  RH WIND       PRES   REMARKS
PHOENIX        CLEAR     76  29  17 CALM      29.86R
BUCKEYE        CLEAR     64  10  12 NE5       29.88S
LUKE AFB       CLEAR     72  17  12 SW10      29.85S
DEER VALLEY    CLEAR     73  16  11 CALM      29.87S
SCOTTSDALE     CLEAR     75  26  16 N3        29.90R
MESA-GATEWAY   CLEAR     68  27  21 SE6       29.89S
$$

AZZ027-028-301100-
SOUTHWEST MARICOPA COUNTY AND PINAL COUNTY

CITY           SKY/WX    TMP DP  RH WIND       PRES   REMARKS
CASA GRANDE    CLEAR     68  14  12 W7        29.90S
GILA BEND      FAIR      69   2   7 CALM      29.86R
$$

AZZ503-504-507>509-301100-
SOUTHEAST ARIZONA

CITY           SKY/WX    TMP DP  RH WIND       PRES   REMARKS
TUCSON         CLEAR     70  29  21 S6        29.97S
DAVIS-MONTHAN  CLEAR     67  29  23 SE3       29.96R
NOGALES        CLEAR     66  44  45 SE3       30.03S
SIERRA VISTA   CLEAR     65  47  50 S6        30.08S
DOUGLAS        CLEAR     63  39  41 SE5       30.05S
SAFFORD        CLEAR     71  16  12 NW7       29.95F
$$

AZZ020-021-025-026-031-301100-
SOUTHWEST ARIZONA

CITY           SKY/WX    TMP DP  RH WIND       PRES   REMARKS
YUMA           CLEAR     69  49  48 S8        29.82F
$$

CAZ031-033-041-043-047-048-061-301100-
SOUTHERN CALIFORNIA

CITY           SKY/WX    TMP DP  RH WIND       PRES   REMARKS
DOWNTOWN L.A.  CLEAR     59  54  83 CALM      29.99S
L.A. AIRPORT   PTCLDY    58  54  86 W5        29.99F
SAN DIEGO      CLOUDY    62  58  86 CALM      30.01F
BURBANK        CLEAR     57  52  83 E3        29.98S
ONTARIO        PTCLDY    56  50  80 W3        29.99F
RIVERSIDE      CLOUDY    59  51  75 CALM      30.00S
PALM SPRINGS   CLEAR     71  52  50 NW8       29.84F
EL CENTRO NAS  CLEAR     68  46  45 NW7       29.82R
IMPERIAL       CLEAR     73  45  36 E3        29.81R
BLYTHE         CLEAR     72  40  31 SE8       29.82S
NEEDLES        CLEAR     72  26  18 W6        29.83S
$$

NVZ020-UTZ003-301100-
SOUTHERN NEVADA-UTAH

CITY           SKY/WX    TMP DP  RH WIND       PRES   REMARKS
LAS VEGAS      PTCLDY    75  20  12 S6        29.85F
SALT LAKE CITY CLOUDY    59  48  67 SE14G26   30.10F
$$

NMZ009-TXZ055-301100-
NEW MEXICO-WEST TEXAS

CITY           SKY/WX    TMP DP  RH WIND       PRES   REMARKS
ALBUQUERQUE    MOCLDY    62  39  42 N6        30.09S
EL PASO        PTCLDY    74  40  29 S9        30.02S
$$


........................KEY........................
SKY/WX - SKY CONDITION/WEATHER
TMP    - TEMPERATURE IN FAHRENHEIT
DP     - DEW POINT IN FAHRENHEIT
RH     - RELATIVE HUMIDITY IN PERCENT
WIND   - DIRECTION AND SPEED IN MILES PER HOUR (MPH)
VRB    - VARIABLE WIND DIRECTION
PRES   - MEAN SEA LEVEL PRESSURE IN INCHES OF MERCURY
         F - FALLING PRESSURE   R - RISING PRESSURE
         S - STEADY PRESSURE
VSB    - VISIBILITY IN MILES
HX     - HEAT INDEX IN FAHRENHEIT
WCI    - WIND CHILL INDEX IN FAHRENHEIT
TC     - TEMPERATURE IN CELSIUS WHICH IS ALSO KNOWN AS
         TEMPERATURE IN CENTIGRADE
AFB    - AIR FORCE BASE
         LUKE AFB IS LUKE AIR FORCE BASE
         DAVIS-MONTHAN IS DAVIS-MONTHAN AIR FORCE BASE
NAS    - NAVAL AIR STATION
         EL CENTRO NAS IS EL CENTRO NAVAL AIR STATION
N/A    - NOT AVAILABLE





USA.gov is the U.S. government's official web portal to all federal, state and local government web resources and services.